Weather History for Marham, United Kingdom

Change the Weather History Date:

Wednesday, August 13, 2014

  Actual Average Record
Temperature  
Mean Temperature 61 °F -  
Max Temperature 71 °F - - ()
Min Temperature 51 °F - - ()
Degree Days  
Heating Degree Days 4    
Growing Degree Days 11 (Base 50)    
Moisture  
Dew Point 51 °F    
Average Humidity 69    
Maximum Humidity 94    
Minimum Humidity 37    
Precipitation  
Precipitation 0.00 in - - ()
Sea Level Pressure  
Sea Level Pressure 29.63 in    
Wind  
Wind Speed 11 mph ()    
Max Wind Speed 21 mph    
Max Gust Speed -    
Visibility 10.0 miles    
Events      
T = Trace of Precipitation, MM = Missing Value Source: Averaged Metar Reports

Daily Weather History Graph

Daily Weather History Graph

Search for Another Location

Airport:

Trip Planner

Search our weather history database for the weather conditions in past years. The results will help you decide how hot, cold, wet, or windy it might be!

Date:

Astronomy

Aug. 13, 2014 Rise Set
Actual Time 5:36 AM BST 8:27 PM BST
Civil Twilight 4:56 AM BST 9:06 PM BST
Nautical Twilight 4:05 AM BST 9:57 PM BST
Astronomical Twilight 3:00 AM BST 11:01 PM BST
Moon 9:27 PM BST (8/13) 9:18 AM BST (8/13)
Length of Visible Light 16h 10m
Length of Day
14h 51m
Waning Gibbous, 89% of the Moon is Illuminated
Aug 13
Waning Gibbous
Aug 17
Last Quarter
Aug 25
New
Sep 2
First Quarter
Sep 9
Full

Hourly Weather History & Observations

Time (BST) Temp. Dew Point Humidity Pressure Visibility Wind Dir Wind Speed Gust Speed Precip Events Conditions
12:00 AM 55 °F 49 °F 74% 29.64 in 12 mi SSW 11.5 mph - -   Scattered Clouds
12:50 AM 53.6 °F 50.0 °F 88% 29.62 in - SSW 11.5 mph - N/A   Clear
1:00 AM 54 °F 49 °F 79% 29.63 in 12 mi SSW 11.5 mph - -   Clear
2:00 AM 53 °F 50 °F 85% 29.61 in 16 mi SSW 10.4 mph - -  
2:50 AM 53.6 °F 50.0 °F 88% 29.59 in 6.2 mi SSW 11.5 mph - N/A   Scattered Clouds
3:00 AM 53 °F 50 °F 87% 29.60 in 16 mi SSW 11.5 mph - -   Partly Cloudy
3:50 AM 53.6 °F 50.0 °F 88% 29.59 in 6.2 mi SSW 9.2 mph - N/A   Mostly Cloudy
4:00 AM 53 °F 50 °F 87% 29.60 in 16 mi SSW 9.2 mph - -   Mostly Cloudy
4:50 AM 51.8 °F 50.0 °F 94% 29.59 in 6.2 mi South 9.2 mph - N/A   Partly Cloudy
5:00 AM 51 °F 50 °F 93% 29.60 in 11 mi South 9.2 mph - -   Scattered Clouds
5:50 AM 51.8 °F 50.0 °F 94% 29.59 in 6.2 mi SSW 10.4 mph - N/A   Mostly Cloudy
6:00 AM 52 °F 50 °F 91% 29.60 in 11 mi SSW 10.4 mph - -   Scattered Clouds
6:50 AM 53.6 °F 50.0 °F 88% 29.59 in 6.2 mi SSW 10.4 mph - N/A   Mostly Cloudy
7:00 AM 53 °F 51 °F 89% 29.61 in 11 mi SSW 10.4 mph - -   Scattered Clouds
7:50 AM 55.4 °F 51.8 °F 88% 29.59 in 6.2 mi SW 11.5 mph - N/A   Scattered Clouds
8:00 AM 54 °F 52 °F 89% 29.61 in 11 mi SW 11.5 mph - -   Partly Cloudy
8:50 AM 57.2 °F 53.6 °F 88% 29.62 in 6.2 mi WSW 15.0 mph - N/A   Partly Cloudy
9:00 AM 57 °F 53 °F 81% 29.62 in 12 mi WSW 15.0 mph - -   Scattered Clouds
9:50 AM 62.6 °F 53.6 °F 72% 29.59 in 6.2 mi SW 15.0 mph - N/A   Scattered Clouds
10:00 AM 63 °F 54 °F 63% 29.61 in 12 mi SW 15.0 mph - -   Scattered Clouds
10:50 AM 66.2 °F 51.8 °F 60% 29.59 in 6.2 mi WSW 18.4 mph - N/A   Partly Cloudy
11:00 AM 67 °F 52 °F 49% 29.60 in 12 mi WSW 18.4 mph - -   Partly Cloudy
11:50 AM 68.0 °F 51.8 °F 56% 29.59 in 6.2 mi West 17.3 mph - N/A   Scattered Clouds
12:00 PM 67 °F 51 °F 47% 29.60 in 12 mi West 17.3 mph - -   Partly Cloudy
1:00 PM 68 °F 50 °F 42% 29.61 in 16 mi West 18.4 mph - -   Partly Cloudy
2:00 PM 70 °F 49 °F 37% 29.61 in 12 mi West 18.4 mph - -   Partly Cloudy
3:00 PM 68 °F 52 °F 47% 29.62 in 12 mi West 17.3 mph - -   Partly Cloudy
3:50 PM 69.8 °F 51.8 °F 53% 29.62 in 6.2 mi West 19.6 mph - N/A   Scattered Clouds
4:00 PM 70 °F 51 °F 40% 29.62 in 12 mi West 19.6 mph - -   Partly Cloudy
4:50 PM 69.8 °F 50.0 °F 49% 29.62 in 6.2 mi WSW 20.7 mph - N/A   Scattered Clouds
5:00 PM 69 °F 50 °F 40% 29.63 in 12 mi WSW 20.7 mph - -   Partly Cloudy
5:50 PM 66.2 °F 50.0 °F 56% 29.62 in 6.2 mi West 12.7 mph - N/A   Scattered Clouds
6:00 PM 67 °F 50 °F 44% 29.65 in 12 mi West 12.7 mph - -   Partly Cloudy
6:50 PM 66.2 °F 48.2 °F 52% 29.65 in 6.2 mi WNW 16.1 mph - N/A   Scattered Clouds
7:00 PM 66 °F 48 °F 42% 29.66 in 12 mi WNW 16.1 mph - -   Scattered Clouds
7:50 PM 64.4 °F 50.0 °F 59% 29.65 in 6.2 mi WNW 10.4 mph - N/A   Partly Cloudy
8:00 PM 64 °F 50 °F 50% 29.67 in 12 mi WNW 10.4 mph - -   Scattered Clouds
8:50 PM 59.0 °F 50.0 °F 72% 29.68 in 6.2 mi West 4.6 mph - N/A   Partly Cloudy
9:00 PM 59 °F 50 °F 63% 29.70 in 12 mi West 4.6 mph - -   Scattered Clouds
9:50 PM 57.2 °F 50.0 °F 77% 29.71 in - West 8.1 mph - N/A   Clear
10:00 PM 57 °F 49 °F 68% 29.71 in 12 mi West 8.1 mph - -   Scattered Clouds
10:50 PM 57.2 °F 50.0 °F 77% 29.71 in - West 9.2 mph - N/A   Clear
11:00 PM 57 °F 50 °F 69% 29.72 in 12 mi West 9.2 mph - -   Scattered Clouds
11:50 PM 55.4 °F 50.0 °F 82% 29.71 in - West 8.1 mph - N/A   Clear